Location: Boiro
(42.6475°N, 8.8834°W)
Time: 18:46:21
(UTC+01:00)

Transit 2A Rocket - Pass Details

Date: 05 December 2021
Orbit: 585 x 917 km, 66.7° (Epoch: 26 January)

Event Time Altitude Azimuth Distance (km) Brightness Sun altitude
Rises 17:00:34 0° 332° (NNW) 3,561 8.3 8.3°
Reaches altitude 10° 17:03:14 10° 338° (NNW) 2,605 7.6 8.0°
Maximum altitude 17:09:08 49° 52° (NE) 1,124 5.6 7.1°
Drops below altitude 10° 17:14:42 10° 128° (SE) 2,454 7.5 6.3°
Sets 17:17:08 0° 133° (SE) 3,338 8.2 6.0°
